Location: Baix
(44.7118°N, 4.7648°E)
Time: 00:32:59
(UTC+00:00)

Vanguard 1 Rocket - Pass Details

Date: 04 October 2022
Orbit: 650 x 4225 km, 34.3° (Epoch: 05 December)

Event Time Altitude Azimuth Distance (km) Brightness Sun altitude
Rises 17:19:20 0° 218° (SW) 8,461 13.0 -1.4°
Reaches altitude 10° 17:26:11 10° 211° (SSW) 7,340 12.5 -2.6°
Maximum altitude 17:46:39 37° 155° (SSE) 4,343 10.6 -6.2°
Drops below altitude 10° 17:59:48 10° 94° (E) 4,834 10.4 -8.6°
Enters shadow 17:59:58 10° 94° (E) 4,860 10.4 -8.6°
